Regional Weather Roundup
Issued by NWS

Home | Current Version | Previous Version | Graphics & Text | Print | Product List | Glossary On
Versions: 1 2 3 4 5 6 7 8 9 10 11 12 13 14 15 16 17 18 19 20 21 22 23 24 25 26 27 28 29 30 31 32 33 34 35 36 37 38 39 40 41 42 43 44 45 46 47 48 49 50
000
ASUS43 KLSX 251007
RWRMO

WEATHER SUMMARY FOR MISSOURI
NATIONAL WEATHER SERVICE SPRINGFIELD MO
500 AM CDT SAT APR 25 2015

NOTE: "FAIR" INDICATES FEW OR NO CLOUDS BELOW 12,000 FEET WITH NO
       SIGNIFICANT WEATHER AND/OR OBSTRUCTIONS TO VISIBILITY.
       CURRENT SKY AND/OR WEATHER CONDITIONS ARE NOT AVAILABLE FOR
       CHILLICOTHE AND FARMINGTON.

MOZ001>031-035>038-043-044-053-054-251100-
...NORTHERN AND WESTERN MISSOURI...

CITY           SKY/WX    TMP DP  RH WIND       PRES   REMARKS
KANSAS CTY INT LGT RAIN  56  55  97 SE14      29.39F
KANSAS C DTWN  CLOUDY    57  54  89 E3        29.40F
LEE`S SUMMIT   MOCLDY    56  54  93 SE9       29.44F
ST JOSEPH      LGT RAIN  58  55  90 SE16      29.40S
CHILLICOTHE      N/A     55  53  93 SE6       29.49F
KIRKSVILLE     CLOUDY    52  51  97 SE10      29.53F

$$
MOZ066>068-077>081-088>096-101>105-251100-
...SOUTHWEST MISSOURI...

CITY           SKY/WX    TMP DP  RH WIND       PRES   REMARKS
SPRINGFIELD    MOCLDY    59  56  89 S17       29.50F
JOPLIN         PTCLDY    61  57  87 S16G24    29.47F

$$
MOZ032>034-039>042-045>050-055>058-069>072-251100-
...CENTRAL MISSOURI...

CITY           SKY/WX    TMP DP  RH WIND       PRES   REMARKS
COLUMBIA       CLOUDY    54  53  97 SE12      29.52F
JEFFERSON CITY CLOUDY    57  53  86 SE10      29.52F
ROLLA          CLOUDY    55  54  96 S15       29.53F
SEDALIA        CLOUDY    59  55  87 SE13      29.48F
WHITEMAN AFB   TSTM      57  55  94 VRB2      29.47R
WARRENSBURG    CLOUDY    55  54  94 SE8       29.47F
OSAGE BEACH    CLOUDY    57  54  88 SE8       29.51F

$$
MOZ051-052-059>065-251100-
...EAST CENTRAL MISSOURI...

CITY           SKY/WX    TMP DP  RH WIND       PRES   REMARKS
ST LOUIS INTL  LGT RAIN  56  50  80 SE10      29.60F
SPIRIT OF STL  LGT RAIN  54  50  86 E3        29.58F
ST CHARLES     CLOUDY    54  49  83 SE8       29.59F

$$
MOZ072>076-082>087-097>100-106>115-251100-
...SOUTH CENTRAL AND SOUTHEAST MISSOURI...

CITY           SKY/WX    TMP DP  RH WIND       PRES   REMARKS
CAPE GIRARDEAU CLOUDY    57  55  93 SE5       29.63F
FARMINGTON     CLOUDY    54  52  94 S7        29.64F VSB 1
POPLAR BLUFF   CLOUDY    57  55  93 SE6       29.61F FOG
WEST PLAINS    FOG       56  55  97 S7        29.59F VSB 3/4

$$


USA.gov is the U.S. government's official web portal to all federal, state and local government web resources and services.